Weather History for Hot Springs, VA

Change the Weather History Date:

Tuesday, January 4, 2000

  Actual Average Record
Temperature  
Mean Temperature 44 °F -  
Max Temperature 53 °F 34 °F 59 °F (2004)
Min Temperature 33 °F 21 °F 6 °F (1999)
Degree Days  
Heating Degree Days 21    
Moisture  
Dew Point 46 °F    
Average Humidity 93    
Maximum Humidity 100    
Minimum Humidity 82    
Precipitation  
Precipitation 0.00 in - - ()
Sea Level Pressure  
Sea Level Pressure 29.80 in    
Wind  
Wind Speed 16 mph (SW)    
Max Wind Speed 25 mph    
Max Gust Speed 41 mph    
Visibility 6 miles    
Events      
Averages and records for this station are not official NWS values.
T = Trace of Precipitation, MM = Missing Value Source: NWS Daily Summary

Daily Weather History Graph

Daily Weather History Graph

Search for Another Location

Airport:

Trip Planner

Search our weather history database for the weather conditions in past years. The results will help you decide how hot, cold, wet, or windy it might be!

Date:

Astronomy

Jan. 04, 2000 Rise Set
Actual Time 7:35 AM EST 5:12 PM EST
Civil Twilight 7:06 AM EST 5:42 PM EST
Nautical Twilight 6:33 AM EST 6:14 PM EST
Astronomical Twilight 6:01 AM EST 6:46 PM EST
Moon 5:39 AM EST (1/4) 3:49 PM EST (1/4)
Length of Visible Light 10h 35m
Length of Day
9h 37m
Waning Crescent, 4% of the Moon is Illuminated
Jan 4
Waning Crescent
Jan 6
New
Jan 14
First Quarter
Jan 20
Full
Jan 28
Last Quarter

Hourly Weather History & Observations

Time (EST) Temp. Windchill Dew Point Humidity Pressure Visibility Wind Dir Wind Speed Gust Speed Precip Events Conditions
12:18 AM 51.8 °F - 51.8 °F 100% 29.95 in 0.2 mi South 15.0 mph 26.5 mph N/A   Overcast
12:38 AM 51.8 °F - 51.8 °F 100% 29.94 in 0.2 mi South 12.7 mph 24.2 mph N/A   Overcast
1:00 AM 51.8 °F - 51.8 °F 100% 29.94 in 0.2 mi South 11.5 mph 28.8 mph N/A   Overcast
1:18 AM 51.8 °F - 51.8 °F 100% 29.93 in 0.2 mi South 13.8 mph 23.0 mph N/A   Overcast
1:38 AM 51.8 °F - 51.8 °F 100% 29.91 in 0.2 mi South 16.1 mph 24.2 mph N/A   Overcast
1:58 AM 51.8 °F - 51.8 °F 100% 29.92 in 0.2 mi South 13.8 mph 23.0 mph N/A   Overcast
2:18 AM 50.0 °F - 50.0 °F 100% 29.92 in 1.2 mi South 13.8 mph 28.8 mph N/A   Overcast
2:38 AM 50.0 °F - 50.0 °F 100% 29.93 in 3.0 mi South 12.7 mph 18.4 mph N/A   Overcast
2:58 AM 50.0 °F - 50.0 °F 100% 29.92 in 7.0 mi South 15.0 mph 20.7 mph N/A   Overcast
3:20 AM 51.8 °F - 50.0 °F 94% 29.91 in 10.0 mi South 12.7 mph 19.6 mph N/A   Overcast
3:38 AM 51.8 °F - 48.2 °F 88% 29.90 in 10.0 mi South 16.1 mph 25.3 mph N/A   Overcast
3:58 AM 51.8 °F - 48.2 °F 88% 29.90 in 10.0 mi SSW 15.0 mph 27.6 mph N/A   Overcast
4:18 AM 51.8 °F - 48.2 °F 88% 29.89 in 10.0 mi SSW 23.0 mph 28.8 mph N/A   Overcast
4:38 AM 51.8 °F - 48.2 °F 88% 29.88 in 10.0 mi SSW 18.4 mph 26.5 mph N/A   Overcast
4:58 AM 51.8 °F - 48.2 °F 88% 29.87 in 10.0 mi SSW 13.8 mph 32.2 mph N/A   Overcast
5:18 AM 51.8 °F - 48.2 °F 88% 29.87 in 10.0 mi SSW 21.9 mph 31.1 mph N/A   Overcast
5:38 AM 51.8 °F - 48.2 °F 88% 29.86 in 10.0 mi South 15.0 mph 21.9 mph N/A   Overcast
5:58 AM 51.8 °F - 48.2 °F 88% 29.86 in 10.0 mi South 17.3 mph 23.0 mph N/A   Overcast
6:18 AM 51.8 °F - 48.2 °F 88% 29.86 in 10.0 mi SSW 18.4 mph 26.5 mph N/A   Overcast
6:38 AM 51.8 °F - 48.2 °F 88% 29.85 in 10.0 mi South 17.3 mph 31.1 mph N/A   Mostly Cloudy
6:59 AM 50.0 °F - 48.2 °F 94% 29.82 in 10.0 mi South 17.3 mph 28.8 mph N/A   Scattered Clouds
7:19 AM 51.8 °F - 48.2 °F 88% 29.83 in 10.0 mi South 18.4 mph 33.4 mph N/A   Mostly Cloudy
7:38 AM 51.8 °F - 48.2 °F 88% 29.81 in 10.0 mi SSW 18.4 mph 26.5 mph N/A   Overcast
7:58 AM 50.0 °F - 48.2 °F 94% 29.81 in 10.0 mi South 19.6 mph 29.9 mph N/A   Mostly Cloudy
8:18 AM 50.0 °F - 48.2 °F 94% 29.82 in 10.0 mi SSW 15.0 mph 27.6 mph N/A   Mostly Cloudy
8:38 AM 51.8 °F - 48.2 °F 88% 29.81 in 7.0 mi SSW 12.7 mph 23.0 mph N/A   Mostly Cloudy
8:59 AM 51.8 °F - 48.2 °F 88% 29.81 in 10.0 mi SSW 20.7 mph 28.8 mph N/A   Overcast
9:18 AM 51.8 °F - 48.2 °F 88% 29.81 in 10.0 mi SSW 17.3 mph 24.2 mph N/A   Mostly Cloudy
9:38 AM 53.6 °F - 48.2 °F 82% 29.81 in 10.0 mi SSW 19.6 mph 26.5 mph N/A   Mostly Cloudy
10:01 AM 53.6 °F - 48.2 °F 82% 29.80 in 10.0 mi SSW 13.8 mph 23.0 mph N/A   Mostly Cloudy
10:20 AM 53.6 °F - 48.2 °F 82% 29.80 in 10.0 mi South 11.5 mph 25.3 mph N/A   Overcast
10:39 AM 53.6 °F - 48.2 °F 82% 29.79 in 10.0 mi SSW 15.0 mph 23.0 mph N/A   Overcast
10:59 AM 53.6 °F - 48.2 °F 82% 29.78 in 10.0 mi SSW 18.4 mph 32.2 mph N/A   Overcast
11:19 AM 53.6 °F - 48.2 °F 82% 29.77 in 10.0 mi SSW 15.0 mph 32.2 mph N/A   Overcast
11:39 AM 51.8 °F - 48.2 °F 88% 29.76 in 7.0 mi SW 20.7 mph 28.8 mph N/A   Overcast
11:59 AM 51.8 °F - 50.0 °F 94% 29.75 in 7.0 mi SW 17.3 mph 29.9 mph N/A   Overcast
12:19 PM 51.8 °F - 50.0 °F 94% 29.73 in 5.0 mi SW 19.6 mph 32.2 mph N/A   Overcast
12:39 PM 51.8 °F - 50.0 °F 94% 29.72 in 0.8 mi West 17.3 mph 32.2 mph N/A   Overcast
1:00 PM 46.4 °F 40.4 °F 46.4 °F 100% 29.73 in 0.2 mi West 13.8 mph 17.3 mph N/A   Overcast
1:19 PM 46.4 °F 40.7 °F 44.6 °F 93% 29.73 in 0.2 mi West 12.7 mph 19.6 mph N/A   Overcast
1:39 PM 44.6 °F 37.2 °F 44.6 °F 100% 29.72 in 0.2 mi WNW 17.3 mph 20.7 mph N/A   Overcast
1:59 PM 44.6 °F 37.2 °F 44.6 °F 100% 29.72 in 0.2 mi WNW 17.3 mph 21.9 mph N/A   Overcast
2:19 PM 44.6 °F 36.6 °F 42.8 °F 93% 29.70 in 0.2 mi WNW 19.6 mph 26.5 mph N/A   Overcast
2:40 PM 42.8 °F 34.5 °F 42.8 °F 100% 29.71 in 0.2 mi WNW 18.4 mph 25.3 mph N/A   Overcast
3:00 PM 42.8 °F 34.3 °F 42.8 °F 100% 29.71 in 0.2 mi WNW 19.6 mph 26.5 mph N/A   Overcast
3:19 PM 41.0 °F 31.6 °F 41.0 °F 100% 29.71 in 0.2 mi WNW 20.7 mph 27.6 mph N/A   Overcast
3:42 PM 41.0 °F 32.5 °F 41.0 °F 100% 29.71 in 0.2 mi WNW 17.3 mph 27.6 mph N/A   Overcast
3:59 PM 41.0 °F 32.5 °F 41.0 °F 100% 29.71 in 0.2 mi WNW 17.3 mph 27.6 mph N/A   Overcast
4:19 PM 39.2 °F 30.8 °F 39.2 °F 100% 29.71 in 0.2 mi WNW 15.0 mph 23.0 mph N/A   Overcast
4:39 PM 39.2 °F 29.8 °F 39.2 °F 100% 29.72 in 0.2 mi WNW 18.4 mph 24.2 mph N/A   Overcast
4:58 PM - - - N/A% 29.71 in 0.5 mi WNW 18.4 mph 29.9 mph N/A   Overcast
5:19 PM 37.4 °F 25.9 °F 35.6 °F 93% 29.73 in 10.0 mi WNW 25.3 mph 32.2 mph N/A   Overcast
5:38 PM 35.6 °F 24.0 °F 35.6 °F 100% 29.73 in 10.0 mi WNW 23.0 mph 31.1 mph N/A   Overcast
5:58 PM 35.6 °F 24.0 °F 33.8 °F 93% 29.73 in 10.0 mi WNW 23.0 mph 29.9 mph N/A   Overcast
6:18 PM 35.6 °F 25.5 °F 33.8 °F 93% 29.73 in 10.0 mi WNW 17.3 mph 31.1 mph N/A   Overcast
6:38 PM 35.6 °F 25.2 °F 32.0 °F 87% 29.74 in 10.0 mi WNW 18.4 mph 32.2 mph N/A   Overcast
6:59 PM 35.6 °F 24.0 °F 32.0 °F 87% 29.74 in 10.0 mi WNW 23.0 mph 29.9 mph N/A   Overcast
7:18 PM 33.8 °F 21.0 °F 30.2 °F 87% 29.75 in 10.0 mi WNW 25.3 mph 41.4 mph N/A   Overcast
7:39 PM 33.8 °F 22.2 °F 30.2 °F 87% 29.75 in 10.0 mi WNW 20.7 mph 36.8 mph N/A   Overcast
8:00 PM 33.8 °F 20.8 °F 30.2 °F 87% 29.75 in 10.0 mi WNW 26.5 mph 32.2 mph N/A   Overcast
8:18 PM 32.0 °F 19.2 °F 28.4 °F 87% 29.75 in 10.0 mi WNW 23.0 mph 38.0 mph N/A   Overcast
8:38 PM 32.0 °F 18.6 °F 28.4 °F 87% 29.74 in 10.0 mi WNW 25.3 mph 34.5 mph N/A   Overcast
8:58 PM 32.0 °F 19.2 °F 28.4 °F 87% 29.74 in 10.0 mi WNW 23.0 mph 31.1 mph N/A   Mostly Cloudy
9:18 PM 30.2 °F 15.9 °F 26.6 °F 86% 29.74 in 10.0 mi WNW 26.5 mph 34.5 mph N/A   Unknown
9:40 PM 30.2 °F 16.8 °F 26.6 °F 86% 29.75 in 10.0 mi WNW 23.0 mph 32.2 mph N/A   Overcast
9:58 PM 30.2 °F 15.7 °F 26.6 °F 86% 29.76 in 10.0 mi WNW 27.6 mph 35.7 mph N/A   Overcast
10:18 PM 28.4 °F 13.5 °F 24.8 °F 86% 29.76 in 10.0 mi WNW 26.5 mph 40.3 mph N/A   Overcast
10:38 PM 28.4 °F 13.3 °F 24.8 °F 86% 29.76 in 10.0 mi WNW 27.6 mph 34.5 mph N/A   Overcast
10:58 PM 26.6 °F 12.0 °F 23.0 °F 86% 29.77 in 10.0 mi WNW 23.0 mph 35.7 mph N/A   Overcast
11:18 PM 26.6 °F 10.8 °F 21.2 °F 80% 29.78 in 10.0 mi WNW 27.6 mph 41.4 mph N/A   Overcast
11:42 PM 26.6 °F 10.6 °F 21.2 °F 80% 29.80 in 10.0 mi WNW 28.8 mph 40.3 mph N/A   Overcast
11:58 PM 24.8 °F 10.0 °F 21.2 °F 86% 29.80 in 10.0 mi WNW 21.9 mph 35.7 mph N/A   Overcast